Tuesday, March 31, 2015
15:32 UTC
  |  Log In   |  Register Free
Airport Search:

Owatonna Degner Regional Airport
(KOWA)

Owatonna Degner Regional Airport Diagram
No Airport Diagram Available

FAA data valid effective March 05, 2015 - April 30, 2015 (unless otherwise noted).

 
 
 
 
 
 
 
 
 
 
 
 
 
 

Current Aviation Weather for Owatonna Degner Regional Airport (KOWA)

The most recent METAR observation for KOWA was updated at: 1511
METAR Summary (Translated METAR)
KOWA
311455Z AUTO 30007KT 10SM CLR 09/03 A2995 RMK AO2
KFBL
311454Z AUTO 31009KT 10SM CLR 09/03 A2995 RMK AO2
(12.5 nm NW from KOWA)
KACQ
311439Z AUTO 31006KT 10SM CLR 08/03 A2996 RMK AO2
(13 nm SW from KOWA)
TAF
No TAF information found within 50 nm of KOWA
  Airport Weather Conditions for KOWA

 Current Weather at OWA
48° F
Fair
Northwest winds at 8.1 mph
OWA NOAA Radar

Pressure: 29.95 in
Humidity: 66%
Wind: Northwest at 8.1 MPH (7 KT)
Dew Point: 37.4°F
Visibility: 10.00 mi


Airport Weather Forecast for KOWA

Translated METAR and TAF for KOWA
Translated METAR for KOWA (1531 UTC 31 March 2015)
found at http://aviationweather.gov/adds/metars/
 
METAR text: KOWA 311515Z AUTO 31008KT 10SM CLR 10/03 A2996 RMK AO2
Conditions at: KOWA (OWATONNA , MN, US) observed 1515 UTC 31 March 2015
Temperature: 10.0°C (50°F)
Dewpoint: 3.0°C (37°F) [RH = 62%]
Pressure (altimeter): 29.96 inches Hg (1014.6 mb)
Winds: from the NW (310 degrees) at 9 MPH (8 knots; 4.2 m/s)
Visibility: 10 or more miles (16+ km)
Ceiling: at least 12,000 feet AGL
Clouds: sky clear below 12,000 feet AGL
Weather: automated observation with no human augmentation;
there may or may not be significant weather present at this time
Translated TAF for KOWA

There is no translated TAF available for this airport

Find All Airport Services Find A Hotel Find A Rental Car Find A Golf Course Find A Restaurant $100 Hamburger



FBO's on the Field
FBO Company Facility Photos Services Transportation Aviation Fuel Prices: Prices include tax
Catering Weather Repair Courtesy Rental Type 100LL JetA JetA+ MOGAS 8087
 
Owatonna Degner Regional Airport

This FBO has not yet been rated
FS:Avfuel
Last Updated: Mar-17
Login to update fuel prices
SS:
Contact Owatonna Degner Regional AirportMore FBO Information
 
Add another FBO Facility Photos Catering Weather Repair Courtesy Rental Type 100LL JetA JetA+ MOGAS 8087
Services Transportation Aviation Fuel Prices: Prices include tax


model-print
model-print
model-print
model-print